Location: Caualo
(45.5667°N, 10.8667°E)
Time: 19:25:56
(UTC+00:00)

FALCON 9 DEB - Pass Details

Date: 07 June 2020
Orbit: 428 x 442 km, 53.0° (Epoch: 05 July)

Event Time Altitude Azimuth Distance (km) Brightness Sun altitude
Rises 02:12:50 0° 301° (WNW) 2,408 6.8 -10.7°
Reaches altitude 10° 02:14:57 10° 300° (WNW) 1,540 5.8 -10.4°
Maximum altitude 02:18:24 79° 215° (SW) 448 3.0 -10.0°
Drops below altitude 10° 02:21:52 10° 128° (SE) 1,541 6.0 -9.6°
Sets 02:23:59 0° 127° (SE) 2,409 7.0 -9.4°
